www.pogodaiklimat.ru

Погода и климат >> Архив погоды >> Мьянма >> Minbu


ПОГОДА в Minbu

  • Прогноз погоды в Minbu
  • Монитор погоды в Minbu
  • Климат города

АРХИВ ПОГОДЫ в Minbu

Время (UTC), дата Ветер
(напр.,м/с)
 
Видим.   Явления Облачность Т
(С)
Тd
(С)
f
(%)
Тe
(С)
Тes
(С)
Комфортность P
(гПа)
Po
(гПа)
Тmin
(С)
Tmax
(С)
R
(мм)
R24
(мм)
S
(см)
00 11.11 СЗ 1 4000 м 9/6 300 м
[Cu Sc Ac trans]
+22.8 +21.4 92 +30 +30 очень
душно
1010.3 1010.0 +20.3
03 11.11 ЮВ 1 6000 м 8/5 300 м
[Cu Sc Ac trans]
+27.6 +23.3 77 +37 +40 очень
душно
1012.7 1013.0
06 11.11 СЗ 1 9000 м 8/5 300 м
[Cu Sc Ac trans]
+30.0 +26.6 82 +46 +51 опасность
перегрева
1012.5 1013.0
09 11.11 З 1 10 км 8/5 300 м
[Cu Sc Ac trans]
+32.7 +29.1 81 +56 +58 опасность
перегрева
1008.6 1009.0
12 11.11 ЮЗ 1 5000 м 8/5 300 м
[Cu Sc Ac trans Ci fib]
+28.0 +25.0 84 +40 +40 очень
душно
1009.3 1009.0 +33.6
15 11.11 ЮЗ 1 4000 м 9/6 300 м
[Cu Sc Ac trans]
+26.1 +24.6 91 +37 +37 очень
душно
1009.8 1010.0
00 12.11 штиль 0 5000 м 4/1 600 м
[Sc Ci fib]
+24.0 +22.6 92 +31 +31 очень
душно
1010.8 1011.0 +21.0
03 12.11 ЮВ 1 8000 м 9/5 300 м
[Cu Sc Ac As]
+25.8 +22.9 84 +34 +36 очень
душно
1010.3 1010.0
06 12.11 ЮЗ 1 10 км 6/4 300 м
[Cu Sc Ac trans]
+32.0 +23.6 61 +43 +50 опасность
перегрева
1009.2 1009.0
09 12.11 СЗ 1 10 км 9/5 300 м
[Cu Sc Ac As]
+30.2 +23.9 69 +42 +43 опасность
перегрева
1006.9 1007.0
12 12.11 С 1 5000 м 9/5 300 м
[Cu Sc Ac As]
+27.8 +23.3 77 +38 +38 очень
душно
1006.8 1007.0 +33.3
15 12.11 ЮЗ 1 4000 м 8/5 300 м
[Cu Sc Ac trans]
+27.0 +24.0 84 +37 +37 очень
душно
1006.2 1006.0
00 13.11 штиль 0 5000 м 4/1 600 м
[Sc Ac trans]
+23.5 +22.6 95 +31 +31 очень
душно
1008.7 1009.0 +21.6
03 13.11 СЗ 1 8000 м 9/5 600 м
[Cu Sc Ac As]
+26.5 +21.1 72 +33 +35 очень
душно
1009.6 1010.0
06 13.11 СЗ 1 9000 м 9/6 300 м
[Cu Sc Ac As]
+28.2 +22.0 69 +36 +39 очень
душно
1008.5 1009.0
09 13.11 ЮЗ 1 10 км 9/5 300 м
[Cu Sc Ac As]
+30.0 +22.3 63 +39 +40 очень
душно
1006.0 1006.0
12 13.11 штиль 0 5000 м 9/5 300 м
[Cu Sc Ac As]
+27.6 +23.3 77 +37 +37 очень
душно
1005.8 1006.0 +30.5
15 13.11 штиль 0 4000 м 8/5 300 м
[Cu Sc Ac trans]
+27.0 +22.6 77 +36 +36 очень
душно
1005.5 1006.0
00 14.11 ЮЗ 1 5000 м 9/6 300 м
[Cu Sc Ac trans]
+23.4 +21.4 89 +32 +32 очень
душно
1008.1 1008.0 +21.3
03 14.11 ЮЗ 1 6000 м 4/3 600 м
[Cu Sc Ac trans]
+27.7 +23.3 77 +37 +43 очень
душно
1009.0 1009.0
06 14.11 ЮВ 1 10 км 4/1 600 м
[Cu hum Ac trans]
+31.0 +23.7 65 +42 +53 опасность
перегрева
1009.3 1009.0
09 14.11 ЮВ 1 10 км 4/1 600 м
[Cu hum Ac trans Ci fib]
+33.0 +24.4 61 +46 +50 опасность
перегрева
1006.6 1007.0
12 14.11 6000 м н/о +30.0 +23.9 70 +41 +41 опасность
перегрева
1006.9 1007.0 +34.4
15 14.11 ЮВ 1 4000 м 9/6 300 м
[Cu Sc Ac trans]
+27.6 +23.3 77 +37 +37 очень
душно
1008.9 1009.0
00 15.11 ЮВ 1 4000 м 9/6 300 м
[Cu Sc Ac trans]
+25.0 +23.3 90 +33 +33 очень
душно
1009.0 1009.0 +23.0
03 15.11 ЮЗ 1 5000 м 9/6 300 м
[Cu Sc Ac trans]
+27.0 +24.0 84 +37 +39 очень
душно
1011.7 1012.0
06 15.11 ЮВ 1 10 км 6/4 600 м
[Cu Sc Ac trans]
+31.1 +25.4 72 +45 +53 опасность
перегрева
1010.5 1011.0
09 15.11 СВ 1 10 км 8/5 600 м
[Cu Sc Ac trans]
+33.7 +27.0 68 +52 +53 опасность
перегрева
1008.8 1009.0
12 15.11 ЮЗ 1 5000 м 9/6 300 м
[Cu Sc Ac trans]
+28.8 +24.8 79 +41 +41 опасность
перегрева
1007.8 1008.0 +34.6
15 15.11 ЮЗ 1 4000 м 9/6 300 м
[Cu Sc Ac trans]
+27.9 +25.0 84 +40 +40 очень
душно
1008.1 1008.0
00 16.11 штиль 0 5000 м 3/1 600 м
[Sc Ac trans]
+22.0 +18.5 81 +27 +27 душно 1011.6 1012.0 +20.0
03 16.11 ЮЗ 1 8000 м ясно +27.6 +20.3 64 +34 +42 очень
душно
1011.5 1012.0
06 16.11 СВ 1 10 км ясно +31.4 +22.5 59 +41 +56 опасность
перегрева
1011.9 1012.0
09 16.11 СВ 1 10 км ясно +34.0 +22.5 51 +43 +49 опасность
перегрева
1006.9 1007.0
12 16.11 СВ 1 5000 м 3/0
[Ac trans]
+29.6 +22.3 65 +39 +39 очень
душно
1006.9 1007.0 +35.0
15 16.11 ЮЗ 1 4000 м ясно +27.6 +23.3 77 +37 +37 очень
душно
1006.5 1007.0
00 17.11 штиль 0 5000 м 1/0
[Ac trans]
+20.5 +18.5 88 +24 +24 комфорт 1010.9 1011.0 +18.0
03 17.11 ЮЗ 1 8000 м 5/4 300 м
[Cu Sc Ac trans]
+23.8 +19.1 75 +29 +33 душно 1010.8 1011.0
06 17.11 ЮЗ 1 10 км 5/4 300 м
[Cu Sc Ac trans]
+29.0 +21.5 64 +37 +45 очень
душно
1010.3 1010.0
09 17.11 ЮВ 1 10 км 6/4 300 м
[Cu Sc Ac trans Ci fib]
+34.0 +22.5 51 +43 +46 опасность
перегрева
1007.6 1008.0
12 17.11 ЮВ 1 5000 м 3/0
[Cs]
+28.4 +23.3 74 +38 +38 очень
душно
1006.8 1007.0 +34.5
15 17.11 ЮВ 1 4000 м ясно +27.0 +24.0 84 +37 +37 очень
душно
1007.3 1007.0

 

Местоположение метеостанции Minbu (Мьянма): широта 20.17 долгота 94.88 высота над уровнем моря 51 м.

В архиве по умолчанию представлена погода в Minbu за последнюю неделю. Архивные данные за месяц целиком и за предыдущие месяцы, начиная с января 2011 года, Вы можете получить, выбрав интересующий диапазон дат из раскрывающегося списка и нажав кнопку "Ввод!".


*Определитесь, кто Вы:
робот инопланетянин человек

Внимание! Время в таблицах - всемирное. Для получения местного времени необходимо прибавить поправку, которая в Minbu равна 6.5 ч.

Смотрите также архив погоды в соседних городах и на ближайших метеорологических станциях:

Погода в Magway (Мьянма) (8 км)
Погода в Chauk (Мьянма) (79 км)
Погода в Nyaung-U (Мьянма) (115 км)
Погода в Meiktila (Мьянма) (123 км)
Погода в Pyinmana (Мьянма) (149 км)
Погода в Prome (Мьянма) (156 км)
Погода в Kyaukpyu (Мьянма) (162 км)
Погода в Mindat (Мьянма) (166 км)
Погода в Manaung (Мьянма) (190 км)
Погода в Thandwe (Мьянма) (197 км)

Пояснения к столбцам:

Ветер - указаны скорость ветра в м/с - средняя за 10 мин, порывы в срок и между сроками (в фигурных скобках) и направление, откуда дует ветер: С - северный, СВ - северо-восточный, В - восточный, ЮВ - юго-восточный, Ю - южный, ЮЗ - юго-западный, З - западный, СЗ - северо-западный.
Видимость - горизонтальная дальность видимости в метрах или километрах. При видимости от 1 до 10 км при отсутствии осадков обычно наблюдается дымка, при ухудшении видимости до 1 км и менее - туман. В сухую погоду видимость может ухудшаться дымом, пылью или мглою.
Явления - указаны атмосферные явления, наблюдавшиеся в срок или в последний час перед сроком; фигурными скобками обозначены явления, наблюдавшиеся между сроками (за 1-3 часа до срока); квадратными скобками обозначены град или гололедные отложения с указанием их диаметра в мм.
Облачность - указаны через наклонную черту общая и нижняя облачность в баллах и высота нижней границы облаков в метрах; квадратными скобками обозначены формы облаков: Ci - перистые, Cs - перисто-слоистые, Cc - перисто-кучевые, Ac - высококучевые, As - высокослоистые, Sc - слоисто-кучевые, Ns - слоисто-дождевые, Cu - кучевые, Cb - кучево-дождевые. Подробнее классификацию облаков см. в Атласе облаков (PDF).
T - Температура воздуха - температура, измеренная на высоте 2 м над землей.
Td - Температура точки росы - температура, при понижении до которой содержащийся в воздухе водяной пар достигнет насыщения.
f - Относительная влажность воздуха - влажноcть воздуха, измеренная на высоте 2 м над землей.
Te - Эффективная температура - температура, которую ощущает одетый по сезону человек в тени. Характеристика душности погоды. При расчете учитывается влияние влажности воздуха и скорости ветра на теплоощущения человека.
Tes - Эффективная температура на солнце - температура, которую ощущает человек, с поправкой на солнечный нагрев. Характеристика знойности погоды. Зависит от высоты солнца над горизонтом, облачности и скорости ветра. Ночью, в пасмурную погоду, а также при ветре 12 м/с и более поправка равна нулю.
P - Атмосферное давление - приведенное к уровню моря атмосферное давление.
Po - Атмосферное давление - измеренное на уровне метеостанции атмосферное давление.
Tmin - Минимальная температура - минимум температуры воздуха на высоте 2 м над землей.
Tmax - Максимальная температура - максимум температуры воздуха на высоте 2 м над землей.
R - Количество осадков - Количество выпавших осадков за период времени, мм. При наведении курсора мыши на число - период времени, за который выпало указанное количество осадков.
R24 - Количество осадков - Количество выпавших осадков за 24 часа, мм.
S - Снежный покров - Высота снежного покрова, см. При наведении курсора мыши на число - состояние снежного покрова и степень покрытия местности в баллах.